Location: Ebersheim
(48.3033°N, 7.4991°E)
Time: 11:24:36
(UTC+00:00)

STARLINK-1007 - Pass Details

Date: 27 February 2020
Orbit: 558 x 561 km, 53.0° (Epoch: 09 April)

Event Time Altitude Azimuth Distance (km) Brightness Sun altitude
Rises 17:55:42 0° 275° (W) 2,734 9.4 -8.4°
Reaches altitude 10° 17:58:01 10° 282° (WNW) 1,839 7.8 -8.7°
Maximum altitude 18:02:02 43° 355° (N) 783 4.4 -9.4°
Enters shadow 18:05:42 12° 67° (ENE) 1,711 5.6 -10.0°
